{"data":{"norad_id":55631,"intl_designator":"2023-021D","name":"STARLINK-5558","alt_names":[],"object_type":"PAYLOAD","status":"ACTIVE","operator":null,"country":"US","launch_date":"2023-02-17","launch_site_code":"AFWTR","launch_vehicle":null,"mission":null,"orbit_class":"UNKNOWN","rcs_meters":null,"size_class":null,"mass_kg":null,"dimensions":null,"purposes":["comms"],"wikipedia_slug":null,"has_3d_model":false,"image_url":null,"decayed_at":null,"tle_current":{"epoch":"2026-05-25T00:25:09.439104Z","epoch_age_seconds":76823,"freshness":"FRESH","line1":"1 55631U 23021D   26145.01747036 -.00000030  00000+0  52740-5 0  9990","line2":"2 55631  70.0005  11.9150 0002571 269.6261  90.4603 14.98329841179736","mean_motion":14.98329841,"eccentricity":0.0002571,"inclination_deg":70.0005,"raan_deg":11.915,"arg_perigee_deg":269.6261,"mean_anomaly_deg":90.4603,"bstar":5.274e-6,"rev_number":17973,"period_min":96.107009324391,"perigee_km":570.26948792017,"apogee_km":573.84327735752,"semimajor_km":6950.1933826388,"source":"CELESTRAK","updated_at":"2026-05-25T13:38:17.847229Z"}}}